Tracking 19908 objects as of 19-Oct-2019
HD Live streaming from Space Station
objects crossing your sky now

THORAD DELTA 1 DEB

Track THORAD DELTA 1 DEB now!
10-day predictions


NORAD ID: 8146
Int'l Code: 1974-089Q
Perigee: 1,306.2 km
Apogee: 1,597.6 km
Inclination: 101.7 °
Period: 114.8 minutes
Semi major axis: 7822 km
RCS: 0.2088 m2 (medium)
Launch date: November 15, 1974
Source: United States (US)
Launch site: AIR FORCE WESTERN TEST RANGE (AFWTR)

Note: This is SATELLITE DEBRIS
aabbcc
Your satellite tracking list
Your tracking list is empty




NASA's NSSDC Master Catalog

Two Line Element Set (TLE):
1  8146U 74089Q   19291.41020076 -.00000116 +00000-0 -41805-3 0  9990
2  8146 101.6797 247.5153 0186248 147.7959 010.9171 12.54724920055869
Source of the keplerian elements: AFSPC